www.pogodaiklimat.ru

Погода и климат >> Архив погоды >> Антарктида >> Cape Ross


ПОГОДА в Cape Ross

  • Прогноз погоды в Cape Ross
  • Монитор погоды в Cape Ross
  • Климат города

АРХИВ ПОГОДЫ в Cape Ross

Время (UTC), дата Ветер
(напр.,м/с)
 
Видим.   Явления Облачность Т
(С)
Тd
(С)
f
(%)
Тe
(С)
Тes
(С)
Комфортность P
(гПа)
Po
(гПа)
Тmin
(С)
Tmax
(С)
R
(мм)
R24
(мм)
S
(см)
10 18.09 Ю 8 н/о н/о -16.9 958.7
11 18.09 Ю 11 н/о н/о -16.7 957.6
12 18.09 Ю 12 н/о н/о -17.3 957.1
13 18.09 Ю 13 н/о н/о -17.3 956.7
14 18.09 Ю 14 н/о н/о -16.8 956.5
15 18.09 ЮЗ 10 н/о н/о -16.1 956.7
16 18.09 ЮЗ 10 н/о н/о -16.1 956.7
17 18.09 Ю 12 н/о н/о -16.6 955.3
18 18.09 Ю 12 н/о н/о -16.6 955.3
19 18.09 Ю 9 н/о н/о -16.2 954.8
20 18.09 Ю 9 н/о н/о -16.2 954.8
21 18.09 Ю 10 н/о н/о -15.5 953.7
22 18.09 З 4 н/о н/о -14.9 953.4
23 18.09 З 4 н/о н/о -14.9 953.4
00 19.09 СЗ 4 н/о н/о -15.6 952.7
01 19.09 СЗ 4 н/о н/о -15.6 952.7
02 19.09 ЮЗ 8 н/о н/о -15.1 951.6
03 19.09 ЮЗ 13 н/о н/о -15.6 950.4
04 19.09 Ю 10 н/о н/о -18.4 950.8
05 19.09 Ю 9 н/о н/о -19.5 950.9
06 19.09 Ю 9 н/о н/о -19.5 950.9
07 19.09 Ю 10 н/о н/о -17.7 950.5
08 19.09 Ю 10 н/о н/о -17.7 950.5
09 19.09 ЮЗ 13 н/о н/о -18.7 949.7
10 19.09 ЮЗ 11 н/о н/о -17.9 949.9
11 19.09 ЮЗ 13 н/о н/о -18.3 950.0
12 19.09 ЮЗ 11 н/о н/о -18.1 949.8
13 19.09 ЮЗ 6 н/о н/о -19.8 950.2
14 19.09 0 н/о 970.2
15 19.09 ЮЗ 7 н/о н/о -18.7 950.2
16 19.09 ЮЗ 11 н/о н/о -19.0 950.1
17 19.09 ЮЗ 13 н/о н/о -18.8 950.2
18 19.09 ЮЗ 11 н/о н/о -18.4 950.2
19 19.09 ЮЗ 11 н/о н/о -18.4 950.2
20 19.09 Ю 5 н/о н/о -17.4 951.5
21 19.09 Ю 6 н/о н/о -17.1 952.0
22 19.09 Ю 6 н/о н/о -19.0 952.8
23 19.09 Ю 6 н/о н/о -19.0 952.8
00 20.09 ЮВ 3 н/о н/о -18.7 953.8
01 20.09 СВ 1 н/о н/о -17.5 955.2
02 20.09 0 н/о
03 20.09 Ю 4 н/о н/о -16.8 956.8
04 20.09 0 н/о
05 20.09 Ю 7 н/о н/о -15.8 957.2
06 20.09 Ю 3 н/о н/о -15.8 958.1
07 20.09 Ю 2 н/о н/о -16.1 958.8
08 20.09 Ю 5 н/о н/о -16.6 959.7
09 20.09 Ю 5 н/о н/о -16.6 959.7
10 20.09 Ю 7 н/о н/о -15.1 960.4
11 20.09 Ю 8 н/о н/о -14.9 961.0
12 20.09 Ю 11 н/о н/о -17.4 961.5
13 20.09 Ю 12 н/о н/о -16.9 963.3
14 20.09 Ю 12 н/о н/о -16.7 963.6
15 20.09 Ю 11 н/о н/о -17.7 964.1
16 20.09 Ю 9 н/о н/о -17.2 964.6
17 20.09 Ю 5 н/о н/о -17.5 965.5
18 20.09 Ю 4 н/о н/о -17.5 965.7
19 20.09 Ю 5 н/о н/о -16.3 965.6
20 20.09 ЮЗ 4 н/о н/о -16.1 965.6
21 20.09 ЮЗ 4 н/о н/о -16.2 965.3
22 20.09 ЮЗ 5 н/о н/о -16.3 965.0
23 20.09 ЮЗ 4 н/о н/о -15.8 964.9
00 21.09 ЮЗ 2 н/о н/о -15.8 964.9
01 21.09 З 11 н/о н/о -15.9 963.9
02 21.09 З 12 н/о н/о -16.6 963.9
03 21.09 СЗ 8 н/о н/о -15.5 964.1
04 21.09 СЗ 8 н/о н/о -15.5 964.1
05 21.09 З 5 н/о н/о -15.5 964.0
06 21.09 СЗ 2 н/о н/о -15.6 963.6
07 21.09 З 3 н/о н/о -16.4 963.1
08 21.09 СЗ 4 н/о н/о -15.6 962.3
09 21.09 СЗ 3 н/о н/о -16.2 962.3
11 21.09 СЗ 6 н/о н/о -18.1 962.4
12 21.09 СЗ 9 н/о н/о -17.9 963.1
13 21.09 СЗ 9 н/о н/о -17.9 963.1
14 21.09 СЗ 5 н/о н/о -16.7 964.1
15 21.09 СЗ 6 н/о н/о -16.7 964.7
17 21.09 СЗ 5 н/о н/о -16.3 965.5
16 21.09 СЗ 6 н/о н/о -16.7 964.7
18 21.09 СЗ 6 н/о н/о -16.1 965.9
19 21.09 С 2 н/о н/о -17.1 966.7
20 21.09 Ю 4 н/о н/о -19.8 967.2
21 21.09 Ю 7 н/о н/о -21.0 967.6
23 21.09 Ю 10 н/о н/о -21.2 967.9
22 21.09 Ю 7 н/о н/о -21.0 967.6
00 22.09 Ю 11 н/о н/о -21.9 968.8
01 22.09 Ю 12 н/о н/о -21.6 968.9
02 22.09 Ю 13 н/о н/о -21.6 968.8
03 22.09 11 н/о 969.2
05 22.09 Ю 8 н/о н/о -21.2 971.0
04 22.09 Ю 13 н/о н/о -21.7 969.2
06 22.09 Ю 9 н/о н/о -23.1 971.1
07 22.09 Ю 10 н/о н/о -22.6 971.2
08 22.09 Ю 9 н/о н/о -23.0 971.6
09 22.09 Ю 9 н/о н/о -23.0 971.6
11 22.09 Ю 11 н/о н/о -21.9 971.5
10 22.09 Ю 9 н/о н/о -22.6 971.7
12 22.09 Ю 9 н/о н/о -21.7 972.0
13 22.09 Ю 9 н/о н/о -21.3 972.2
14 22.09 Ю 9 н/о н/о -21.3 972.2
15 22.09 Ю 9 н/о н/о -21.4 972.3
17 22.09 Ю 8 н/о н/о -21.1 972.5
16 22.09 Ю 8 н/о н/о -21.2 972.4
18 22.09 Ю 7 н/о н/о -20.6 972.4
19 22.09 Ю 6 н/о н/о -21.1 972.2
20 22.09 Ю 4 н/о н/о -21.0 972.2
21 22.09 Ю 5 н/о н/о -20.6 971.9
23 22.09 Ю 6 н/о н/о -20.3 971.6
22 22.09 Ю 6 н/о н/о -20.2 971.8
00 23.09 Ю 6 н/о н/о -23.2 971.7
01 23.09 Ю 9 н/о н/о -22.6 971.5
02 23.09 Ю 9 н/о н/о -22.6 971.5
03 23.09 Ю 12 н/о н/о -24.1 970.8
05 23.09 Ю 9 н/о н/о -20.8 970.9
04 23.09 Ю 4 н/о н/о -23.1 971.4
06 23.09 Ю 9 н/о н/о -21.5 970.7
07 23.09 Ю 12 н/о н/о -24.6 970.5
08 23.09 Ю 12 н/о н/о -24.6 970.5
09 23.09 Ю 13 н/о н/о -25.5 970.5
11 23.09 Ю 11 н/о н/о -24.1 970.7
10 23.09 Ю 13 н/о н/о -24.6 970.5
12 23.09 Ю 11 н/о н/о -24.2 970.8
13 23.09 Ю 9 н/о н/о -24.4 970.9
14 23.09 Ю 9 н/о н/о -24.9 971.0
15 23.09 Ю 10 н/о н/о -24.8 970.7
17 23.09 Ю 10 н/о н/о -25.0 970.4
16 23.09 Ю 10 н/о н/о -25.0 970.4
18 23.09 Ю 8 н/о н/о -24.8 970.5
19 23.09 Ю 8 н/о н/о -25.1 969.9
20 23.09 Ю 8 н/о н/о -25.1 969.9
21 23.09 Ю 6 н/о н/о -26.7 969.9
23 23.09 Ю 2 н/о н/о -25.8 970.2
22 23.09 Ю 2 н/о н/о -25.8 970.2
00 24.09 ЮЗ 2 н/о н/о -24.4 970.1
01 24.09 0 н/о н/о -23.7 970.1
02 24.09 Ю 3 н/о н/о -24.2 969.7
03 24.09 Ю 3 н/о н/о -24.2 969.7
05 24.09 Ю 1 н/о н/о -24.2 969.4
04 24.09 З 1 н/о н/о -23.5 969.6
06 24.09 Ю 3 н/о н/о -25.8 969.3
07 24.09 Ю 3 н/о н/о -25.8 969.3
08 24.09 Ю 5 н/о н/о -26.2 969.0
09 24.09 Ю 6 н/о н/о -27.1 968.7
11 24.09 Ю 5 н/о н/о -27.0 968.7
10 24.09 Ю 6 н/о н/о -27.2 968.7
12 24.09 Ю 5 н/о н/о -27.0 968.7
13 24.09 Ю 4 н/о н/о -27.0 968.6
14 24.09 Ю 4 н/о н/о -27.6 968.3
15 24.09 Ю 5 н/о н/о -28.8 968.2
17 24.09 Ю 3 н/о н/о -27.5 967.8
16 24.09 Ю 4 н/о н/о -28.7 968.0
18 24.09 Ю 3 н/о н/о -27.5 967.8
19 24.09 Ю 2 н/о н/о -27.3 967.5
20 24.09 ЮВ 2 н/о н/о -27.6 967.5
21 24.09 Ю 2 н/о н/о -27.4 967.2
23 24.09 Ю 1 н/о н/о -26.6 966.9
22 24.09 Ю 1 н/о н/о -27.0 967.2
00 25.09 0 н/о н/о -26.1 966.6
01 25.09 СЗ 1 н/о н/о -25.6 966.5
02 25.09 СЗ 2 н/о н/о -25.7 965.9
03 25.09 СЗ 2 н/о н/о -25.2 965.3
05 25.09 СЗ 2 н/о н/о -25.3 964.8
04 25.09 СЗ 2 н/о н/о -25.3 964.8
06 25.09 СЗ 4 н/о н/о -26.1 964.0
07 25.09 СЗ 5 н/о н/о -25.6 963.5
08 25.09 СЗ 4 н/о н/о -25.8 963.2
09 25.09 СЗ 3 н/о н/о -26.2 963.1

 

Местоположение метеостанции Cape Ross (Антарктида): широта -76.71 долгота 162.96 высота над уровнем моря 149 м.

В архиве по умолчанию представлена погода в Cape Ross за последнюю неделю. Архивные данные за месяц целиком и за предыдущие месяцы, начиная с января 2011 года, Вы можете получить, выбрав интересующий диапазон дат из раскрывающегося списка и нажав кнопку "Ввод!".


*Определитесь, кто Вы:
робот инопланетянин человек

Внимание! Время в таблицах - всемирное. Для получения местного времени необходимо прибавить поправку, которая в Cape Ross равна 0 ч.

Смотрите также архив погоды в соседних городах и на ближайших метеорологических станциях:

Погода в Marble Point (Антарктида) (82 км)
Погода в McMurdo (Антарктида) (156 км)
Погода в Pegasus North (Антарктида) (163 км)
Погода в Manuela (Антарктида) (198 км)
Погода в Minna Bluff (Антарктида) (223 км)
Погода в Baia Terra Nova (Антарктида) (226 км)
Погода в Ferrell (Антарктида) (232 км)
Погода в Linda (Антарктида) (233 км)
Погода в Jang Bogo (Антарктида) (235 км)
Погода в Priestley Glacier (Антарктида) (349 км)

Пояснения к столбцам:

Ветер - указаны скорость ветра в м/с - средняя за 10 мин, порывы в срок и между сроками (в фигурных скобках) и направление, откуда дует ветер: С - северный, СВ - северо-восточный, В - восточный, ЮВ - юго-восточный, Ю - южный, ЮЗ - юго-западный, З - западный, СЗ - северо-западный.
Видимость - горизонтальная дальность видимости в метрах или километрах. При видимости от 1 до 10 км при отсутствии осадков обычно наблюдается дымка, при ухудшении видимости до 1 км и менее - туман. В сухую погоду видимость может ухудшаться дымом, пылью или мглою.
Явления - указаны атмосферные явления, наблюдавшиеся в срок или в последний час перед сроком; фигурными скобками обозначены явления, наблюдавшиеся между сроками (за 1-3 часа до срока); квадратными скобками обозначены град или гололедные отложения с указанием их диаметра в мм.
Облачность - указаны через наклонную черту общая и нижняя облачность в баллах и высота нижней границы облаков в метрах; квадратными скобками обозначены формы облаков: Ci - перистые, Cs - перисто-слоистые, Cc - перисто-кучевые, Ac - высококучевые, As - высокослоистые, Sc - слоисто-кучевые, Ns - слоисто-дождевые, Cu - кучевые, Cb - кучево-дождевые. Подробнее классификацию облаков см. в Атласе облаков (PDF).
T - Температура воздуха - температура, измеренная на высоте 2 м над землей.
Td - Температура точки росы - температура, при понижении до которой содержащийся в воздухе водяной пар достигнет насыщения.
f - Относительная влажность воздуха - влажноcть воздуха, измеренная на высоте 2 м над землей.
Te - Эффективная температура - температура, которую ощущает одетый по сезону человек в тени. Характеристика душности погоды. При расчете учитывается влияние влажности воздуха и скорости ветра на теплоощущения человека.
Tes - Эффективная температура на солнце - температура, которую ощущает человек, с поправкой на солнечный нагрев. Характеристика знойности погоды. Зависит от высоты солнца над горизонтом, облачности и скорости ветра. Ночью, в пасмурную погоду, а также при ветре 12 м/с и более поправка равна нулю.
P - Атмосферное давление - приведенное к уровню моря атмосферное давление.
Po - Атмосферное давление - измеренное на уровне метеостанции атмосферное давление.
Tmin - Минимальная температура - минимум температуры воздуха на высоте 2 м над землей.
Tmax - Максимальная температура - максимум температуры воздуха на высоте 2 м над землей.
R - Количество осадков - Количество выпавших осадков за период времени, мм. При наведении курсора мыши на число - период времени, за который выпало указанное количество осадков.
R24 - Количество осадков - Количество выпавших осадков за 24 часа, мм.
S - Снежный покров - Высота снежного покрова, см. При наведении курсора мыши на число - состояние снежного покрова и степень покрытия местности в баллах.